Year,Month,Day,Hour,Minute,Value (Times are PST for temperature in C)
2017,08,16,00,00,15.80
2017,08,16,00,01,15.70
2017,08,16,00,02,15.70
2017,08,16,00,03,15.70
2017,08,16,00,04,15.70
2017,08,16,00,05,15.70
2017,08,16,00,06,15.70
2017,08,16,00,07,15.70
2017,08,16,00,08,15.70
2017,08,16,00,09,15.70
2017,08,16,00,10,15.70
2017,08,16,00,11,15.70
2017,08,16,00,12,15.70
2017,08,16,00,13,15.70
2017,08,16,00,14,15.70
2017,08,16,00,15,15.70
2017,08,16,00,16,15.60
2017,08,16,00,17,15.60
2017,08,16,00,18,15.60
2017,08,16,00,19,15.60
2017,08,16,00,20,15.60
2017,08,16,00,21,15.60
2017,08,16,00,22,15.60
2017,08,16,00,23,15.60
2017,08,16,00,24,15.60
2017,08,16,00,25,15.60
2017,08,16,00,26,15.60
2017,08,16,00,27,15.60
2017,08,16,00,28,15.60
2017,08,16,00,29,15.60
2017,08,16,00,30,15.70
2017,08,16,00,31,15.70
2017,08,16,00,32,15.70
2017,08,16,00,33,15.60
2017,08,16,00,34,15.60
2017,08,16,00,35,15.60
2017,08,16,00,36,15.60
2017,08,16,00,37,15.60
2017,08,16,00,38,15.60
2017,08,16,00,39,15.60
2017,08,16,00,40,15.60
2017,08,16,00,41,15.60
2017,08,16,00,42,15.60
2017,08,16,00,43,15.60
2017,08,16,00,44,15.50
2017,08,16,00,45,15.50
2017,08,16,00,46,15.50
2017,08,16,00,47,15.50
2017,08,16,00,48,15.50
2017,08,16,00,49,15.50
2017,08,16,00,50,15.40
2017,08,16,00,51,15.40
2017,08,16,00,52,15.40
2017,08,16,00,53,15.40
2017,08,16,00,54,15.40
2017,08,16,00,55,15.40
2017,08,16,00,56,15.40
2017,08,16,00,57,15.30
2017,08,16,00,58,15.30
2017,08,16,00,59,15.30
2017,08,16,01,00,15.30
2017,08,16,01,01,15.30
2017,08,16,01,02,15.30
2017,08,16,01,03,15.30
2017,08,16,01,04,15.20
2017,08,16,01,05,15.20
2017,08,16,01,06,15.20
2017,08,16,01,07,15.20
2017,08,16,01,08,15.20
2017,08,16,01,09,15.20
2017,08,16,01,10,15.10
2017,08,16,01,11,15.10
2017,08,16,01,12,15.10
2017,08,16,01,13,15.00
2017,08,16,01,14,15.00
2017,08,16,01,15,15.00
2017,08,16,01,16,15.00
2017,08,16,01,17,15.00
2017,08,16,01,18,15.00
2017,08,16,01,19,15.00
2017,08,16,01,20,15.00
2017,08,16,01,21,15.00
2017,08,16,01,22,15.00
2017,08,16,01,23,15.00
2017,08,16,01,24,15.00
2017,08,16,01,25,15.00
2017,08,16,01,26,15.00
2017,08,16,01,27,15.00
2017,08,16,01,28,15.00
2017,08,16,01,29,15.00
2017,08,16,01,30,15.00
2017,08,16,01,31,15.00
2017,08,16,01,32,15.00
2017,08,16,01,33,15.00
2017,08,16,01,34,15.00
2017,08,16,01,35,15.00
2017,08,16,01,36,15.00
2017,08,16,01,37,15.00
2017,08,16,01,38,15.00
2017,08,16,01,39,15.00
2017,08,16,01,40,15.00
2017,08,16,01,41,15.00
2017,08,16,01,42,15.00
2017,08,16,01,43,15.00
2017,08,16,01,44,15.00
2017,08,16,01,45,15.00
2017,08,16,01,46,15.00
2017,08,16,01,47,15.00
2017,08,16,01,48,15.00
2017,08,16,01,49,15.00
2017,08,16,01,50,15.00
2017,08,16,01,51,15.00
2017,08,16,01,52,15.00
2017,08,16,01,53,15.00
2017,08,16,01,54,15.00
2017,08,16,01,55,15.00
2017,08,16,01,56,15.00
2017,08,16,01,57,15.00
2017,08,16,01,58,15.00
2017,08,16,01,59,15.00
2017,08,16,02,00,15.00
2017,08,16,02,01,15.00
2017,08,16,02,02,15.00
2017,08,16,02,03,15.00
2017,08,16,02,04,14.90
2017,08,16,02,05,14.80
2017,08,16,02,06,14.80
2017,08,16,02,07,14.80
2017,08,16,02,08,14.80
2017,08,16,02,09,14.80
2017,08,16,02,10,14.80
2017,08,16,02,11,14.80
2017,08,16,02,12,14.70
2017,08,16,02,13,14.70
2017,08,16,02,14,14.70
2017,08,16,02,15,14.70
2017,08,16,02,16,14.70
2017,08,16,02,17,14.70
2017,08,16,02,18,14.70
2017,08,16,02,19,14.60
2017,08,16,02,20,14.60
2017,08,16,02,21,14.60
2017,08,16,02,22,14.60
2017,08,16,02,23,14.60
2017,08,16,02,24,14.60
2017,08,16,02,25,14.50
2017,08,16,02,26,14.50
2017,08,16,02,27,14.50
2017,08,16,02,28,14.50
2017,08,16,02,29,14.50
2017,08,16,02,30,14.50
2017,08,16,02,31,14.50
2017,08,16,02,32,14.50
2017,08,16,02,33,14.50
2017,08,16,02,34,14.50
2017,08,16,02,35,14.50
2017,08,16,02,36,14.50
2017,08,16,02,37,14.50
2017,08,16,02,38,14.40
2017,08,16,02,39,14.40
2017,08,16,02,40,14.40
2017,08,16,02,41,14.40
2017,08,16,02,42,14.40
2017,08,16,02,43,14.40
2017,08,16,02,44,14.40
2017,08,16,02,45,14.40
2017,08,16,02,46,14.40
2017,08,16,02,47,14.40
2017,08,16,02,48,14.40
2017,08,16,02,49,14.40
2017,08,16,02,50,14.40
2017,08,16,02,51,14.40
2017,08,16,02,52,14.30
2017,08,16,02,53,14.30
2017,08,16,02,54,14.30
2017,08,16,02,55,14.30
2017,08,16,02,56,14.30
2017,08,16,02,57,14.30
2017,08,16,02,58,14.30
2017,08,16,02,59,14.30
2017,08,16,03,00,14.30
2017,08,16,03,01,14.30
2017,08,16,03,02,14.20
2017,08,16,03,03,14.20
2017,08,16,03,04,14.20
2017,08,16,03,05,14.20
2017,08,16,03,06,14.20
2017,08,16,03,07,14.20
2017,08,16,03,08,14.10
2017,08,16,03,09,14.10
2017,08,16,03,10,14.10
2017,08,16,03,11,14.10
2017,08,16,03,12,14.00
2017,08,16,03,13,14.00
2017,08,16,03,14,14.00
2017,08,16,03,15,14.00
2017,08,16,03,16,13.90
2017,08,16,03,17,13.90
2017,08,16,03,18,13.90
2017,08,16,03,19,13.90
2017,08,16,03,20,13.90
2017,08,16,03,21,13.80
2017,08,16,03,22,13.80
2017,08,16,03,23,13.80
2017,08,16,03,24,13.80
2017,08,16,03,25,13.80
2017,08,16,03,26,13.80
2017,08,16,03,27,13.80
2017,08,16,03,28,13.80
2017,08,16,03,29,13.80
2017,08,16,03,30,13.70
2017,08,16,03,31,13.70
2017,08,16,03,32,13.70
2017,08,16,03,33,13.70
2017,08,16,03,34,13.70
2017,08,16,03,35,13.70
2017,08,16,03,36,13.70
2017,08,16,03,37,13.70
2017,08,16,03,38,13.70
2017,08,16,03,39,13.70
2017,08,16,03,40,13.70
2017,08,16,03,41,13.70
2017,08,16,03,42,13.70
2017,08,16,03,43,13.70
2017,08,16,03,44,13.70
2017,08,16,03,45,13.70
2017,08,16,03,46,13.60
2017,08,16,03,47,13.60
2017,08,16,03,48,13.60
2017,08,16,03,49,13.70
2017,08,16,03,50,13.70
2017,08,16,03,51,13.70
2017,08,16,03,52,13.70
2017,08,16,03,53,13.70
2017,08,16,03,54,13.70
2017,08,16,03,55,13.70
2017,08,16,03,56,13.70
2017,08,16,03,57,13.60
2017,08,16,03,58,13.60
2017,08,16,03,59,13.60
2017,08,16,04,00,13.60
2017,08,16,04,01,13.60
2017,08,16,04,02,13.60
2017,08,16,04,03,13.60
2017,08,16,04,04,13.60
2017,08,16,04,05,13.60
2017,08,16,04,06,13.60
2017,08,16,04,07,13.60
2017,08,16,04,08,13.60
2017,08,16,04,09,13.60
2017,08,16,04,10,13.60
2017,08,16,04,11,13.60
2017,08,16,04,12,13.60
2017,08,16,04,13,13.60
2017,08,16,04,14,13.60
2017,08,16,04,15,13.60
2017,08,16,04,16,13.60
2017,08,16,04,17,13.60
2017,08,16,04,18,13.60
2017,08,16,04,19,13.60
2017,08,16,04,20,13.60
2017,08,16,04,21,13.60
2017,08,16,04,22,13.60
2017,08,16,04,23,13.60
2017,08,16,04,24,13.50
2017,08,16,04,25,13.50
2017,08,16,04,26,13.50
2017,08,16,04,27,13.50
2017,08,16,04,28,13.40
2017,08,16,04,29,13.40
2017,08,16,04,30,13.40
2017,08,16,04,31,13.40
2017,08,16,04,32,13.40
2017,08,16,04,33,13.40
2017,08,16,04,34,13.40
2017,08,16,04,35,13.40
2017,08,16,04,36,13.40
2017,08,16,04,37,13.40
2017,08,16,04,38,13.40
2017,08,16,04,39,13.40
2017,08,16,04,40,13.40
2017,08,16,04,41,13.40
2017,08,16,04,42,13.40
2017,08,16,04,43,13.40
2017,08,16,04,44,13.40
2017,08,16,04,45,13.40
2017,08,16,04,46,13.40
2017,08,16,04,47,13.40
2017,08,16,04,48,13.40
2017,08,16,04,49,13.40
2017,08,16,04,50,13.40
2017,08,16,04,51,13.40
2017,08,16,04,52,13.40
2017,08,16,04,53,13.50
2017,08,16,04,54,13.50
2017,08,16,04,55,13.50
2017,08,16,04,56,13.60
2017,08,16,04,57,13.60
2017,08,16,04,58,13.60
2017,08,16,04,59,13.60
2017,08,16,05,00,13.60
2017,08,16,05,01,13.60
2017,08,16,05,02,13.60
2017,08,16,05,03,13.70
2017,08,16,05,04,13.70
2017,08,16,05,05,13.70
2017,08,16,05,06,13.70
2017,08,16,05,07,13.70
2017,08,16,05,08,13.70
2017,08,16,05,09,13.70
2017,08,16,05,10,13.70
2017,08,16,05,11,13.70
2017,08,16,05,12,13.70
2017,08,16,05,13,13.70
2017,08,16,05,14,13.80
2017,08,16,05,15,13.80
2017,08,16,05,16,13.80
2017,08,16,05,17,13.80
2017,08,16,05,18,13.80
2017,08,16,05,19,13.80
2017,08,16,05,20,13.80
2017,08,16,05,21,13.80
2017,08,16,05,22,13.80
2017,08,16,05,23,13.80
2017,08,16,05,24,13.80
2017,08,16,05,25,13.80
2017,08,16,05,26,13.80
2017,08,16,05,27,13.80
2017,08,16,05,28,13.90
2017,08,16,05,29,13.90
2017,08,16,05,30,13.90
2017,08,16,05,31,13.90
2017,08,16,05,32,13.90
2017,08,16,05,33,13.90
2017,08,16,05,34,13.90
2017,08,16,05,35,13.90
2017,08,16,05,36,13.90
2017,08,16,05,37,13.90
2017,08,16,05,38,13.90
2017,08,16,05,39,13.80
2017,08,16,05,40,13.80
2017,08,16,05,41,13.80
2017,08,16,05,42,13.70
2017,08,16,05,43,13.70
2017,08,16,05,44,13.70
2017,08,16,05,45,13.70
2017,08,16,05,46,13.70
2017,08,16,05,47,13.70
2017,08,16,05,48,13.70
2017,08,16,05,49,13.70
2017,08,16,05,50,13.70
2017,08,16,05,51,13.70
2017,08,16,05,52,13.70
2017,08,16,05,53,13.60
2017,08,16,05,54,13.60
2017,08,16,05,55,13.60
2017,08,16,05,56,13.60
2017,08,16,05,57,13.60
2017,08,16,05,58,13.60
2017,08,16,05,59,13.60
2017,08,16,06,00,13.60
2017,08,16,06,01,13.60
2017,08,16,06,02,13.60
2017,08,16,06,03,13.60
2017,08,16,06,04,13.60
2017,08,16,06,05,13.60
2017,08,16,06,06,13.60
2017,08,16,06,07,13.60
2017,08,16,06,08,13.50
2017,08,16,06,09,13.50
2017,08,16,06,10,13.50
2017,08,16,06,11,13.50
2017,08,16,06,12,13.40
2017,08,16,06,13,13.40
2017,08,16,06,14,13.40
2017,08,16,06,15,13.40
2017,08,16,06,16,13.40
2017,08,16,06,17,13.40
2017,08,16,06,18,13.40
2017,08,16,06,19,13.30
2017,08,16,06,20,13.30
2017,08,16,06,21,13.30
2017,08,16,06,22,13.30
2017,08,16,06,23,13.30
2017,08,16,06,24,13.30
2017,08,16,06,25,13.30
2017,08,16,06,26,13.30
2017,08,16,06,27,13.20
2017,08,16,06,28,13.20
2017,08,16,06,29,13.20
2017,08,16,06,30,13.20
2017,08,16,06,31,13.20
2017,08,16,06,32,13.20
2017,08,16,06,33,13.20
2017,08,16,06,34,13.20
2017,08,16,06,35,13.10
2017,08,16,06,36,13.10
2017,08,16,06,37,13.10
2017,08,16,06,38,13.10
2017,08,16,06,39,13.10
2017,08,16,06,40,13.10
2017,08,16,06,41,13.10
2017,08,16,06,42,13.10
2017,08,16,06,43,13.10
2017,08,16,06,44,13.10
2017,08,16,06,45,13.10
2017,08,16,06,46,13.00
2017,08,16,06,47,13.00
2017,08,16,06,48,13.00
2017,08,16,06,49,13.00
2017,08,16,06,50,13.00
2017,08,16,06,51,13.00
2017,08,16,06,52,13.00
2017,08,16,06,53,13.10
2017,08,16,06,54,13.10
2017,08,16,06,55,13.10
2017,08,16,06,56,13.10
2017,08,16,06,57,13.10
2017,08,16,06,58,13.10
2017,08,16,06,59,13.10
2017,08,16,07,00,13.10
2017,08,16,07,01,13.10
2017,08,16,07,02,13.10
2017,08,16,07,03,13.10
2017,08,16,07,04,13.10
2017,08,16,07,05,13.20
2017,08,16,07,06,13.20
2017,08,16,07,07,13.20
2017,08,16,07,08,13.20
2017,08,16,07,09,13.20
2017,08,16,07,10,13.20
2017,08,16,07,11,13.20
2017,08,16,07,12,13.20
2017,08,16,07,13,13.30
2017,08,16,07,14,13.30
2017,08,16,07,15,13.30
2017,08,16,07,16,13.30
2017,08,16,07,17,13.40
2017,08,16,07,18,13.40
2017,08,16,07,19,13.40
2017,08,16,07,20,13.40
2017,08,16,07,21,13.50
2017,08,16,07,22,13.50
2017,08,16,07,23,13.50
2017,08,16,07,24,13.60
2017,08,16,07,25,13.60
2017,08,16,07,26,13.60
2017,08,16,07,27,13.60
2017,08,16,07,28,13.60
2017,08,16,07,29,13.60
2017,08,16,07,30,13.70
2017,08,16,07,31,13.70
2017,08,16,07,32,13.70
2017,08,16,07,33,13.70
2017,08,16,07,34,13.80
2017,08,16,07,35,13.80
2017,08,16,07,36,13.80
2017,08,16,07,37,13.80
2017,08,16,07,38,13.80
2017,08,16,07,39,13.80
2017,08,16,07,40,13.90
2017,08,16,07,41,13.90
2017,08,16,07,42,13.90
2017,08,16,07,43,13.90
2017,08,16,07,44,14.00
2017,08,16,07,45,14.00
2017,08,16,07,46,14.00
2017,08,16,07,47,14.10
2017,08,16,07,48,14.10
2017,08,16,07,49,14.10
2017,08,16,07,50,14.10
2017,08,16,07,51,14.20
2017,08,16,07,52,14.20
2017,08,16,07,53,14.20
2017,08,16,07,54,14.30
2017,08,16,07,55,14.30
2017,08,16,07,56,14.40
2017,08,16,07,57,14.40
2017,08,16,07,58,14.40
2017,08,16,07,59,14.50
2017,08,16,08,00,14.60
2017,08,16,08,01,14.70
2017,08,16,08,02,14.80
2017,08,16,08,03,15.00
2017,08,16,08,04,15.00
2017,08,16,08,05,15.00
2017,08,16,08,06,15.00
2017,08,16,08,07,15.00
2017,08,16,08,08,15.00
2017,08,16,08,09,15.10
2017,08,16,08,10,15.30
2017,08,16,08,11,15.40
2017,08,16,08,12,15.50
2017,08,16,08,13,15.60
2017,08,16,08,14,15.70
2017,08,16,08,15,15.80
2017,08,16,08,16,15.90
2017,08,16,08,17,16.10
2017,08,16,08,18,16.20
2017,08,16,08,19,16.30
2017,08,16,08,20,16.40
2017,08,16,08,21,16.50
2017,08,16,08,22,16.60
2017,08,16,08,23,16.60
2017,08,16,08,24,16.70
2017,08,16,08,25,16.70
2017,08,16,08,26,16.80
2017,08,16,08,27,16.80
2017,08,16,08,28,16.80
2017,08,16,08,29,16.90
2017,08,16,08,30,16.90
2017,08,16,08,31,16.90
2017,08,16,08,32,17.00
2017,08,16,08,33,17.00
2017,08,16,08,34,17.00
2017,08,16,08,35,17.10
2017,08,16,08,36,17.10
2017,08,16,08,37,17.10
2017,08,16,08,38,17.10
2017,08,16,08,39,17.10
2017,08,16,08,40,17.20
2017,08,16,08,41,17.20
2017,08,16,08,42,17.30
2017,08,16,08,43,17.30
2017,08,16,08,44,17.30
2017,08,16,08,45,17.30
2017,08,16,08,46,17.40
2017,08,16,08,47,17.40
2017,08,16,08,48,17.40
2017,08,16,08,49,17.40
2017,08,16,08,50,17.40
2017,08,16,08,51,17.40
2017,08,16,08,52,17.40
2017,08,16,08,53,17.50
2017,08,16,08,54,17.50
2017,08,16,08,55,17.50
2017,08,16,08,56,17.50
2017,08,16,08,57,17.50
2017,08,16,08,58,17.50
2017,08,16,08,59,17.60
2017,08,16,09,00,17.60
2017,08,16,09,01,17.60
2017,08,16,09,02,17.60
2017,08,16,09,03,17.60
2017,08,16,09,04,17.60
2017,08,16,09,05,17.60
2017,08,16,09,06,17.60
2017,08,16,09,07,17.70
2017,08,16,09,08,17.70
2017,08,16,09,09,17.70
2017,08,16,09,10,17.70
2017,08,16,09,11,17.80
2017,08,16,09,12,17.80
2017,08,16,09,13,17.80
2017,08,16,09,14,17.90
2017,08,16,09,15,17.90
2017,08,16,09,16,17.90
2017,08,16,09,17,18.00
2017,08,16,09,18,18.00
2017,08,16,09,19,18.10
2017,08,16,09,20,18.10
2017,08,16,09,21,18.10
2017,08,16,09,22,18.20
2017,08,16,09,23,18.20
2017,08,16,09,24,18.20
2017,08,16,09,25,18.30
2017,08,16,09,26,18.30
2017,08,16,09,27,18.30
2017,08,16,09,28,18.40
2017,08,16,09,29,18.40
2017,08,16,09,30,18.50
2017,08,16,09,31,18.50
2017,08,16,09,32,18.50
2017,08,16,09,33,18.60
2017,08,16,09,34,18.60
2017,08,16,09,35,18.60
2017,08,16,09,36,18.60
2017,08,16,09,37,18.60
2017,08,16,09,38,18.60
2017,08,16,09,39,18.70
2017,08,16,09,40,18.70
2017,08,16,09,41,18.80
2017,08,16,09,42,18.80
2017,08,16,09,43,18.90
2017,08,16,09,44,18.90
2017,08,16,09,45,18.90
2017,08,16,09,46,19.00
2017,08,16,09,47,19.10
2017,08,16,09,48,19.20
2017,08,16,09,49,19.20
2017,08,16,09,50,19.30
2017,08,16,09,51,19.30
2017,08,16,09,52,19.40
2017,08,16,09,53,19.40
2017,08,16,09,54,19.40
2017,08,16,09,55,19.40
2017,08,16,09,56,19.40
2017,08,16,09,57,19.30
2017,08,16,09,58,19.30
2017,08,16,09,59,19.30
2017,08,16,10,00,19.20
2017,08,16,10,01,19.20
2017,08,16,10,02,19.20
2017,08,16,10,03,19.20
2017,08,16,10,04,19.20
2017,08,16,10,05,19.10
2017,08,16,10,06,19.10
2017,08,16,10,07,19.10
2017,08,16,10,08,19.10
2017,08,16,10,09,19.10
2017,08,16,10,10,19.10
2017,08,16,10,11,19.20
2017,08,16,10,12,19.20
2017,08,16,10,13,19.20
2017,08,16,10,14,19.20
2017,08,16,10,15,19.20
2017,08,16,10,16,19.20
2017,08,16,10,17,19.30
2017,08,16,10,18,19.30
2017,08,16,10,19,19.30
2017,08,16,10,20,19.30
2017,08,16,10,21,19.40
2017,08,16,10,22,19.40
2017,08,16,10,23,19.40
2017,08,16,10,24,19.40
2017,08,16,10,25,19.40
2017,08,16,10,26,19.40
2017,08,16,10,27,19.40
2017,08,16,10,28,19.40
2017,08,16,10,29,19.40
2017,08,16,10,30,19.50
2017,08,16,10,31,19.50
2017,08,16,10,32,19.50
2017,08,16,10,33,19.50
2017,08,16,10,34,19.50
2017,08,16,10,35,19.50
2017,08,16,10,36,19.60
2017,08,16,10,37,19.60
2017,08,16,10,38,19.60
2017,08,16,10,39,19.60
2017,08,16,10,40,19.60
2017,08,16,10,41,19.60
2017,08,16,10,42,19.60
2017,08,16,10,43,19.60
2017,08,16,10,44,19.60
2017,08,16,10,45,19.70
2017,08,16,10,46,19.70
2017,08,16,10,47,19.70
2017,08,16,10,48,19.80
2017,08,16,10,49,19.80
2017,08,16,10,50,19.90
2017,08,16,10,51,20.00
2017,08,16,10,52,20.00
2017,08,16,10,53,20.00
2017,08,16,10,54,20.00
2017,08,16,10,55,20.10
2017,08,16,10,56,20.10
2017,08,16,10,57,20.10
2017,08,16,10,58,20.10
2017,08,16,10,59,20.10
2017,08,16,11,00,20.10
2017,08,16,11,01,20.10
2017,08,16,11,02,20.10
2017,08,16,11,03,20.10
2017,08,16,11,04,20.20
2017,08,16,11,05,20.20
2017,08,16,11,06,20.20
2017,08,16,11,07,20.20
2017,08,16,11,08,20.20
2017,08,16,11,09,20.20
2017,08,16,11,10,20.30
2017,08,16,11,11,20.30
2017,08,16,11,12,20.40
2017,08,16,11,13,20.40
2017,08,16,11,14,20.50
2017,08,16,11,15,20.60
2017,08,16,11,16,20.60
2017,08,16,11,17,20.60
2017,08,16,11,18,20.60
2017,08,16,11,19,20.60
2017,08,16,11,20,20.60
2017,08,16,11,21,20.70
2017,08,16,11,22,20.80
2017,08,16,11,23,20.80
2017,08,16,11,24,20.90
2017,08,16,11,25,21.00
2017,08,16,11,26,21.10
2017,08,16,11,27,21.20
2017,08,16,11,28,21.30
2017,08,16,11,29,21.30
2017,08,16,11,30,21.30
2017,08,16,11,31,21.40
2017,08,16,11,32,21.50
2017,08,16,11,33,21.50
2017,08,16,11,34,21.50
2017,08,16,11,35,21.50
2017,08,16,11,36,21.50
2017,08,16,11,37,21.60
2017,08,16,11,38,21.60
2017,08,16,11,39,21.60
2017,08,16,11,40,21.50
2017,08,16,11,41,21.50
2017,08,16,11,42,21.40
2017,08,16,11,43,21.40
2017,08,16,11,44,21.30
2017,08,16,11,45,21.20
2017,08,16,11,46,21.20
2017,08,16,11,47,21.10
2017,08,16,11,48,21.10
2017,08,16,11,49,21.10
2017,08,16,11,50,21.10
2017,08,16,11,51,21.10
2017,08,16,11,52,21.10
2017,08,16,11,53,21.20
2017,08,16,11,54,21.20
2017,08,16,11,55,21.20
2017,08,16,11,56,21.20
2017,08,16,11,57,21.30
2017,08,16,11,58,21.30
2017,08,16,11,59,21.40
2017,08,16,12,00,21.50
2017,08,16,12,01,21.60
2017,08,16,12,02,21.70
2017,08,16,12,03,21.80
2017,08,16,12,04,21.80
2017,08,16,12,05,21.80
2017,08,16,12,06,21.90
2017,08,16,12,07,22.00
2017,08,16,12,08,22.10
2017,08,16,12,09,22.20
2017,08,16,12,10,22.30
2017,08,16,12,11,22.30
2017,08,16,12,12,22.40
2017,08,16,12,13,22.40
2017,08,16,12,14,22.50
2017,08,16,12,15,22.50
2017,08,16,12,16,22.40
2017,08,16,12,17,22.40
2017,08,16,12,18,22.40
2017,08,16,12,19,22.40
2017,08,16,12,20,22.30
2017,08,16,12,21,22.40
2017,08,16,12,22,22.40
2017,08,16,12,23,22.30
2017,08,16,12,24,22.30
2017,08,16,12,25,22.40
2017,08,16,12,26,22.40
2017,08,16,12,27,22.40
2017,08,16,12,28,22.40
2017,08,16,12,29,22.30
2017,08,16,12,30,22.30
2017,08,16,12,31,22.30
2017,08,16,12,32,22.30
2017,08,16,12,33,22.30
2017,08,16,12,34,22.20
2017,08,16,12,35,22.10
2017,08,16,12,36,22.00
2017,08,16,12,37,21.90
2017,08,16,12,38,21.80
2017,08,16,12,39,21.90
2017,08,16,12,40,21.90
2017,08,16,12,41,21.90
2017,08,16,12,42,22.00
2017,08,16,12,43,22.10
2017,08,16,12,44,22.10
2017,08,16,12,45,22.10
2017,08,16,12,46,22.20
2017,08,16,12,47,22.30
2017,08,16,12,48,22.40
2017,08,16,12,49,22.40
2017,08,16,12,50,22.40
2017,08,16,12,51,22.40
2017,08,16,12,52,22.40
2017,08,16,12,53,22.40
2017,08,16,12,54,22.50
2017,08,16,12,55,22.50
2017,08,16,12,56,22.60
2017,08,16,12,57,22.60
2017,08,16,12,58,22.70
2017,08,16,12,59,22.80
2017,08,16,13,00,22.90
2017,08,16,13,01,22.90
2017,08,16,13,02,22.90
2017,08,16,13,03,22.90
2017,08,16,13,04,22.80
2017,08,16,13,05,22.70
2017,08,16,13,06,22.60
2017,08,16,13,07,22.50
2017,08,16,13,08,22.40
2017,08,16,13,09,22.40
2017,08,16,13,10,22.30
2017,08,16,13,11,22.30
2017,08,16,13,12,22.30
2017,08,16,13,13,22.30
2017,08,16,13,14,22.30
2017,08,16,13,15,22.30
2017,08,16,13,16,22.30
2017,08,16,13,17,22.20
2017,08,16,13,18,22.20
2017,08,16,13,19,22.20
2017,08,16,13,20,22.20
2017,08,16,13,21,22.20
2017,08,16,13,22,22.20
2017,08,16,13,23,22.20
2017,08,16,13,24,22.20
2017,08,16,13,25,22.20
2017,08,16,13,26,22.20
2017,08,16,13,27,22.20
2017,08,16,13,28,22.20
2017,08,16,13,29,22.20
2017,08,16,13,30,22.20
2017,08,16,13,31,22.10
2017,08,16,13,32,22.10
2017,08,16,13,33,22.10
2017,08,16,13,34,22.10
2017,08,16,13,35,22.10
2017,08,16,13,36,22.10
2017,08,16,13,37,22.10
2017,08,16,13,38,22.10
2017,08,16,13,39,22.10
2017,08,16,13,40,22.10
2017,08,16,13,41,22.10
2017,08,16,13,42,22.10
2017,08,16,13,43,22.10
2017,08,16,13,44,22.10
2017,08,16,13,45,22.10
2017,08,16,13,46,22.10
2017,08,16,13,47,22.10
2017,08,16,13,48,22.10
2017,08,16,13,49,22.20
2017,08,16,13,50,22.20
2017,08,16,13,51,22.20
2017,08,16,13,52,22.20
2017,08,16,13,53,22.20
2017,08,16,13,54,22.30
2017,08,16,13,55,22.30
2017,08,16,13,56,22.30
2017,08,16,13,57,22.40
2017,08,16,13,58,22.40
2017,08,16,13,59,22.40
2017,08,16,14,00,22.40
2017,08,16,14,01,22.40
2017,08,16,14,02,22.50
2017,08,16,14,03,22.60
2017,08,16,14,04,22.60
2017,08,16,14,05,22.60
2017,08,16,14,06,22.60
2017,08,16,14,07,22.60
2017,08,16,14,08,22.60
2017,08,16,14,09,22.60
2017,08,16,14,10,22.60
2017,08,16,14,11,22.60
2017,08,16,14,12,22.70
2017,08,16,14,13,22.80
2017,08,16,14,14,22.90
2017,08,16,14,15,23.00
2017,08,16,14,16,23.00
2017,08,16,14,17,23.10
2017,08,16,14,18,23.10
2017,08,16,14,19,23.10
2017,08,16,14,20,23.00
2017,08,16,14,21,22.90
2017,08,16,14,22,22.90
2017,08,16,14,23,22.80
2017,08,16,14,24,22.70
2017,08,16,14,25,22.60
2017,08,16,14,26,22.50
2017,08,16,14,27,22.50
2017,08,16,14,28,22.40
2017,08,16,14,29,22.40
2017,08,16,14,30,22.30
2017,08,16,14,31,22.30
2017,08,16,14,32,22.30
2017,08,16,14,33,22.30
2017,08,16,14,34,22.20
2017,08,16,14,35,22.20
2017,08,16,14,36,22.20
2017,08,16,14,37,22.30
2017,08,16,14,38,22.30
2017,08,16,14,39,22.40
2017,08,16,14,40,22.50
2017,08,16,14,41,22.60
2017,08,16,14,42,22.70
2017,08,16,14,43,22.80
2017,08,16,14,44,22.80
2017,08,16,14,45,22.80
2017,08,16,14,46,22.80
2017,08,16,14,47,22.90
2017,08,16,14,48,22.90
2017,08,16,14,49,22.90
2017,08,16,14,50,23.00
2017,08,16,14,51,23.10
2017,08,16,14,52,23.10
2017,08,16,14,53,23.20
2017,08,16,14,54,23.30
2017,08,16,14,55,23.30
2017,08,16,14,56,23.30
2017,08,16,14,57,23.40
2017,08,16,14,58,23.40
2017,08,16,14,59,23.50
2017,08,16,15,00,23.50
2017,08,16,15,01,23.60
2017,08,16,15,02,23.70
2017,08,16,15,03,23.80
2017,08,16,15,04,23.80
2017,08,16,15,05,23.90
2017,08,16,15,06,23.90
2017,08,16,15,07,23.90
2017,08,16,15,08,23.90
2017,08,16,15,09,23.90
2017,08,16,15,10,23.90
2017,08,16,15,11,23.90
2017,08,16,15,12,23.90
2017,08,16,15,13,24.00
2017,08,16,15,14,24.00
2017,08,16,15,15,24.10
2017,08,16,15,16,24.10
2017,08,16,15,17,24.10
2017,08,16,15,18,24.10
2017,08,16,15,19,24.10
2017,08,16,15,20,24.10
2017,08,16,15,21,24.00
2017,08,16,15,22,24.00
2017,08,16,15,23,24.00
2017,08,16,15,24,24.00
2017,08,16,15,25,24.00
2017,08,16,15,26,23.90
2017,08,16,15,27,23.90
2017,08,16,15,28,23.90
2017,08,16,15,29,23.90
2017,08,16,15,30,24.10
2017,08,16,15,31,24.20
2017,08,16,15,32,24.30
2017,08,16,15,33,24.40
2017,08,16,15,34,24.50
2017,08,16,15,35,24.70
2017,08,16,15,36,24.80
2017,08,16,15,37,24.90
2017,08,16,15,38,25.00
2017,08,16,15,39,25.10
2017,08,16,15,40,25.10
2017,08,16,15,41,25.20
2017,08,16,15,42,25.20
2017,08,16,15,43,25.30
2017,08,16,15,44,25.30
2017,08,16,15,45,25.30
2017,08,16,15,46,25.30
2017,08,16,15,47,25.40
2017,08,16,15,48,25.40
2017,08,16,15,49,25.40
2017,08,16,15,50,25.40
2017,08,16,15,51,25.40
2017,08,16,15,52,25.40
2017,08,16,15,53,25.30
2017,08,16,15,54,25.30
2017,08,16,15,55,25.20
2017,08,16,15,56,25.20
2017,08,16,15,57,25.10
2017,08,16,15,58,25.10
2017,08,16,15,59,25.10
2017,08,16,16,00,25.10
2017,08,16,16,01,25.10
2017,08,16,16,02,25.00
2017,08,16,16,03,25.00
2017,08,16,16,04,25.00
2017,08,16,16,05,24.90
2017,08,16,16,06,24.90
2017,08,16,16,07,24.90
2017,08,16,16,08,24.90
2017,08,16,16,09,24.90
2017,08,16,16,10,24.80
2017,08,16,16,11,24.70
2017,08,16,16,12,24.70
2017,08,16,16,13,24.70
2017,08,16,16,14,24.70
2017,08,16,16,15,24.70
2017,08,16,16,16,24.80
2017,08,16,16,17,24.80
2017,08,16,16,18,24.80
2017,08,16,16,19,24.80
2017,08,16,16,20,24.80
2017,08,16,16,21,24.80
2017,08,16,16,22,24.70
2017,08,16,16,23,24.70
2017,08,16,16,24,24.70
2017,08,16,16,25,24.70
2017,08,16,16,26,24.60
2017,08,16,16,27,24.70
2017,08,16,16,28,24.70
2017,08,16,16,29,24.70
2017,08,16,16,30,24.70
2017,08,16,16,31,24.70
2017,08,16,16,32,24.60
2017,08,16,16,33,24.60
2017,08,16,16,34,24.60
2017,08,16,16,35,24.60
2017,08,16,16,36,24.60
2017,08,16,16,37,24.60
2017,08,16,16,38,24.60
2017,08,16,16,39,24.60
2017,08,16,16,40,24.60
2017,08,16,16,41,24.60
2017,08,16,16,42,24.50
2017,08,16,16,43,24.40
2017,08,16,16,44,24.40
2017,08,16,16,45,24.40
2017,08,16,16,46,24.40
2017,08,16,16,47,24.40
2017,08,16,16,48,24.40
2017,08,16,16,49,24.30
2017,08,16,16,50,24.30
2017,08,16,16,51,24.30
2017,08,16,16,52,24.30
2017,08,16,16,53,24.30
2017,08,16,16,54,24.30
2017,08,16,16,55,24.30
2017,08,16,16,56,24.30
2017,08,16,16,57,24.30
2017,08,16,16,58,24.30
2017,08,16,16,59,24.40
2017,08,16,17,00,24.30
2017,08,16,17,01,24.30
2017,08,16,17,02,24.30
2017,08,16,17,03,24.30
2017,08,16,17,04,24.30
2017,08,16,17,05,24.30
2017,08,16,17,06,24.40
2017,08,16,17,07,24.40
2017,08,16,17,08,24.30
2017,08,16,17,09,24.40
2017,08,16,17,10,24.40
2017,08,16,17,11,24.50
2017,08,16,17,12,24.50
2017,08,16,17,13,24.50
2017,08,16,17,14,24.40
2017,08,16,17,15,24.30
2017,08,16,17,16,24.30
2017,08,16,17,17,24.30
2017,08,16,17,18,24.30
2017,08,16,17,19,24.30